When you browse on this site, cookies collect data to enhance your experience and personalize the content and advertising you see.
Visit our Privacy Policy to learn more. By continuing to use the site, you agree to this use of cookies and data.
  • în România
  • Lista ţărilor
  • Pe 7 zile
  • Temperatura apei
  • Meteo pe hartă
  • Widget-uri
  • user-avatar
    Intrare

    Meteo pe oră la Pecs

    Astăzi, 30 Mai, Sâmbătă

    Timp Temperatura Precipitaţii Vânt Presiune Umiditate
    00:00 +9°C° 0 mm 2 m/s 745 mmHg 88%
    01:00 +8°C° 0 mm 2 m/s 745 mmHg 89%
    02:00 +8°C° 0 mm 2 m/s 745 mmHg 90%
    03:00 +8°C° 0 mm 2 m/s 745 mmHg 92%
    04:00 +8°C° 0 mm 1 m/s 744 mmHg 93%
    05:00 +9°C° 0 mm 2 m/s 745 mmHg 89%
    06:00 +10°C° 0 mm 2 m/s 745 mmHg 85%
    07:00 +12°C° 0 mm 2 m/s 745 mmHg 81%
    08:00 +13°C° 0.2 mm 2 m/s 745 mmHg 79%
    09:00 +13°C° 0.2 mm 2 m/s 744 mmHg 76%
    10:00 +14°C° 0.2 mm 2 m/s 744 mmHg 74%
    11:00 +14°C° 0.1 mm 3 m/s 744 mmHg 68%
    12:00 +17°C° 0.1 mm 3 m/s 744 mmHg 61%
    13:00 +18°C° 0.1 mm 4 m/s 743 mmHg 54%
    14:00 +18°C° 0.1 mm 4 m/s 743 mmHg 54%
    15:00 +18°C° 0.1 mm 4 m/s 743 mmHg 54%
    16:00 +17°C° 0.1 mm 4 m/s 742 mmHg 54%
    17:00 +15°C° 0 mm 4 m/s 742 mmHg 61%
    18:00 +14°C° 0 mm 3 m/s 742 mmHg 68%
    19:00 +13°C° 0 mm 2 m/s 742 mmHg 75%
    20:00 +12°C° 0 mm 3 m/s 743 mmHg 77%
    21:00 +11°C° 0 mm 3 m/s 743 mmHg 78%
    22:00 +10°C° 0 mm 3 m/s 743 mmHg 80%
    23:00 +9°C° 0 mm 3 m/s 743 mmHg 83%

    Mâine, 31 Mai, Duminică

    Timp Temperatura Precipitaţii Vânt Presiune Umiditate
    00:00 +9°C° 0 mm 3 m/s 743 mmHg 85%
    01:00 +8°C° 0 mm 3 m/s 743 mmHg 88%
    02:00 +8°C° 0 mm 3 m/s 743 mmHg 89%
    03:00 +7°C° 0 mm 4 m/s 743 mmHg 90%
    04:00 +7°C° 0 mm 4 m/s 743 mmHg 90%
    05:00 +8°C° 0 mm 4 m/s 743 mmHg 84%
    06:00 +10°C° 0 mm 5 m/s 743 mmHg 77%
    07:00 +13°C° 0 mm 6 m/s 743 mmHg 71%
    08:00 +14°C° 0 mm 6 m/s 743 mmHg 67%
    09:00 +15°C° 0 mm 6 m/s 743 mmHg 63%
    10:00 +16°C° 0 mm 6 m/s 743 mmHg 60%
    11:00 +16°C° 0 mm 7 m/s 742 mmHg 59%
    12:00 +16°C° 0 mm 8 m/s 742 mmHg 58%
    13:00 +16°C° 0 mm 8 m/s 742 mmHg 58%
    14:00 +15°C° 0 mm 8 m/s 742 mmHg 62%
    15:00 +12°C° 0 mm 8 m/s 742 mmHg 67%
    16:00 +11°C° 0 mm 8 m/s 742 mmHg 71%
    17:00 +11°C° 0 mm 7 m/s 742 mmHg 74%
    18:00 +11°C° 0 mm 6 m/s 742 mmHg 77%
    19:00 +10°C° 0 mm 5 m/s 742 mmHg 80%
    20:00 +10°C° 0 mm 5 m/s 742 mmHg 81%
    21:00 +11°C° 0 mm 4 m/s 742 mmHg 81%
    22:00 +11°C° 0 mm 4 m/s 742 mmHg 82%
    23:00 +11°C° 0 mm 4 m/s 742 mmHg 83%

    Poimâine, 1 Iunie, Luni

    Timp Temperatura Precipitaţii Vânt Presiune Umiditate
    00:00 +11°C° 0 mm 4 m/s 742 mmHg 84%
    01:00 +11°C° 0 mm 3 m/s 742 mmHg 85%
    02:00 +11°C° 0.1 mm 3 m/s 742 mmHg 88%
    03:00 +12°C° 0.1 mm 2 m/s 742 mmHg 91%
    04:00 +12°C° 0.1 mm 2 m/s 742 mmHg 94%
    05:00 +12°C° 0.2 mm 2 m/s 742 mmHg 94%
    06:00 +12°C° 0.2 mm 2 m/s 742 mmHg 94%
    07:00 +12°C° 0.2 mm 2 m/s 743 mmHg 94%
    08:00 +13°C° 0.2 mm 2 m/s 743 mmHg 91%
    09:00 +12°C° 0.2 mm 3 m/s 743 mmHg 89%
    10:00 +13°C° 0.2 mm 3 m/s 744 mmHg 87%
    11:00 +14°C° 0 mm 3 m/s 744 mmHg 77%
    12:00 +17°C° 0 mm 3 m/s 744 mmHg 67%
    13:00 +19°C° 0 mm 3 m/s 744 mmHg 57%
    14:00 +19°C° 0.3 mm 3 m/s 743 mmHg 60%
    15:00 +19°C° 0.3 mm 3 m/s 743 mmHg 63%
    16:00 +18°C° 0.3 mm 3 m/s 743 mmHg 66%
    17:00 +17°C° 0.3 mm 2 m/s 743 mmHg 71%
    18:00 +16°C° 0.3 mm 2 m/s 743 mmHg 76%
    19:00 +15°C° 0.3 mm 1 m/s 743 mmHg 80%
    20:00 +14°C° 0.1 mm 1 m/s 743 mmHg 81%
    21:00 +13°C° 0.1 mm 2 m/s 743 mmHg 82%
    22:00 +13°C° 0.1 mm 2 m/s 744 mmHg 83%
    23:00 +12°C° 0 mm 2 m/s 744 mmHg 83%

    2 Iunie, Marţi

    Timp Temperatura Precipitaţii Vânt Presiune Umiditate
    00:00 +12°C° 0 mm 2 m/s 743 mmHg 82%
    01:00 +12°C° 0 mm 2 m/s 743 mmHg 81%
    02:00 +12°C° 0 mm 2 m/s 743 mmHg 82%
    03:00 +11°C° 0 mm 1 m/s 743 mmHg 82%
    04:00 +11°C° 0 mm 1 m/s 743 mmHg 82%
    05:00 +11°C° 0 mm 1 m/s 743 mmHg 81%
    06:00 +12°C° 0 mm 1 m/s 743 mmHg 79%
    07:00 +13°C° 0 mm 1 m/s 743 mmHg 77%
    08:00 +14°C° 0 mm 2 m/s 743 mmHg 70%
    09:00 +14°C° 0 mm 3 m/s 743 mmHg 63%
    10:00 +17°C° 0 mm 4 m/s 743 mmHg 56%
    11:00 +17°C° 0.3 mm 4 m/s 742 mmHg 59%
    12:00 +16°C° 0.3 mm 5 m/s 742 mmHg 62%
    13:00 +16°C° 0.3 mm 6 m/s 741 mmHg 65%
    14:00 +17°C° 0.3 mm 6 m/s 741 mmHg 62%
    15:00 +17°C° 0.3 mm 6 m/s 741 mmHg 59%
    16:00 +17°C° 0.3 mm 6 m/s 740 mmHg 57%
    17:00 +16°C° 0.1 mm 5 m/s 740 mmHg 63%
    18:00 +14°C° 0.1 mm 4 m/s 740 mmHg 69%
    19:00 +14°C° 0.1 mm 2 m/s 740 mmHg 75%
    20:00 +13°C° 0 mm 2 m/s 740 mmHg 77%
    21:00 +12°C° 0 mm 2 m/s 740 mmHg 79%
    22:00 +10°C° 0 mm 2 m/s 740 mmHg 82%
    23:00 +9°C° 0 mm 2 m/s 740 mmHg 82%

    3 Iunie, Miercuri

    Timp Temperatura Precipitaţii Vânt Presiune Umiditate
    00:00 +9°C° 0 mm 2 m/s 740 mmHg 83%
    01:00 +8°C° 0 mm 2 m/s 739 mmHg 83%
    02:00 +8°C° 0 mm 3 m/s 739 mmHg 85%
    03:00 +7°C° 0 mm 3 m/s 739 mmHg 86%
    04:00 +7°C° 0 mm 3 m/s 738 mmHg 88%
    05:00 +9°C° 0 mm 3 m/s 738 mmHg 82%
    06:00 +11°C° 0 mm 4 m/s 738 mmHg 76%
    07:00 +12°C° 0 mm 4 m/s 738 mmHg 70%
    08:00 +14°C° 0 mm 4 m/s 738 mmHg 65%
    09:00 +16°C° 0 mm 5 m/s 738 mmHg 60%
    10:00 +17°C° 0 mm 5 m/s 738 mmHg 56%
    11:00 +19°C° 0.2 mm 4 m/s 738 mmHg 56%
    12:00 +19°C° 0.2 mm 4 m/s 738 mmHg 56%
    13:00 +20°C° 0.2 mm 4 m/s 738 mmHg 56%
    14:00 +19°C° 0.5 mm 3 m/s 738 mmHg 57%
    15:00 +19°C° 0.5 mm 3 m/s 737 mmHg 59%
    16:00 +19°C° 0.5 mm 2 m/s 737 mmHg 61%
    17:00 +18°C° 0.3 mm 2 m/s 737 mmHg 66%
    18:00 +16°C° 0.3 mm 1 m/s 737 mmHg 72%
    19:00 +15°C° 0.3 mm 1 m/s 737 mmHg 77%
    20:00 +14°C° 0 mm 1 m/s 737 mmHg 79%
    21:00 +12°C° 0 mm 0 m/s 738 mmHg 81%
    22:00 +11°C° 0 mm 0 m/s 738 mmHg 83%
    23:00 +10°C° 0 mm 0 m/s 738 mmHg 84%

    4 Iunie, Joi

    Timp Temperatura Precipitaţii Vânt Presiune Umiditate
    00:00 +10°C° 0 mm 0 m/s 738 mmHg 85%
    01:00 +9°C° 0 mm 0 m/s 738 mmHg 86%
    02:00 +9°C° 0 mm 0 m/s 737 mmHg 86%
    03:00 +9°C° 0 mm 0 m/s 737 mmHg 86%
    04:00 +9°C° 0 mm 0 m/s 737 mmHg 87%
    05:00 +11°C° 0 mm 1 m/s 737 mmHg 83%
    06:00 +13°C° 0 mm 1 m/s 737 mmHg 80%
    07:00 +15°C° 0 mm 1 m/s 738 mmHg 76%
    08:00 +16°C° 0 mm 1 m/s 738 mmHg 75%
    09:00 +16°C° 0 mm 2 m/s 738 mmHg 74%
    10:00 +17°C° 0 mm 2 m/s 737 mmHg 73%
    11:00 +18°C° 0 mm 3 m/s 737 mmHg 66%
    12:00 +20°C° 0 mm 3 m/s 737 mmHg 60%
    13:00 +21°C° 0 mm 3 m/s 737 mmHg 54%
    14:00 +21°C° 0 mm 3 m/s 737 mmHg 55%
    15:00 +21°C° 0 mm 3 m/s 737 mmHg 56%
    16:00 +22°C° 0 mm 3 m/s 736 mmHg 57%
    17:00 +20°C° 0 mm 3 m/s 736 mmHg 64%
    18:00 +19°C° 0 mm 3 m/s 736 mmHg 71%
    19:00 +18°C° 0 mm 3 m/s 736 mmHg 78%
    20:00 +17°C° 0 mm 3 m/s 736 mmHg 81%
    21:00 +16°C° 0 mm 2 m/s 736 mmHg 84%
    22:00 +15°C° 0 mm 2 m/s 736 mmHg 86%
    23:00 +15°C° 0 mm 2 m/s 736 mmHg 86%
    Arată mai mult